EW2821 Weather Reports


Display with metric or nautical units.
time (UTC)temp
F
wind
direction
speed
MPH
gust
MPH
rain 1hr
in
rain 24hr
in
rain mn
in
humidity
%
barometer
mb
20260505153024 62 228 6.0 13.0 0.00 0.50 0.50 84 1008.8
20260505151521 62 195 7.0 15.0 0.00 0.50 0.50 83 1008.6
20260505124511 56 216 7.0 11.0 0.00 0.50 0.50 92 1007.9
20260505123004 56 201 5.0 10.0 0.00 0.50 0.50 93 1007.3
20260505121505 55 179 5.0 10.0 0.00 0.50 0.50 94 1007.3
20260505120006 54 197 5.0 8.0 0.00 0.50 0.50 94 1007.6
20260505114602 54 179 6.0 10.0 0.00 0.50 0.50 94 1007.5
20260505113114 54 184 3.0 8.0 0.00 0.50 0.50 94 1007.5
20260505111552 54 180 4.0 8.0 0.00 0.50 0.50 94 1007.1
20260505101552 54 195 10.0 15.0 0.00 0.50 0.50 94 1006.1
20260505100046 54 178 9.0 17.0 0.01 0.50 0.50 95 1005.8
20260505094545 54 188 12.0 20.0 0.02 0.50 0.50 95 1005.7
20260505093050 54 168 11.0 17.0 0.03 0.50 0.50 95 1005.6
20260505091550 54 189 9.0 15.0 0.07 0.50 0.50 95 1006.8
20260505090041 54 172 6.0 9.0 0.16 0.49 0.49 94 1007.3
20260505084538 54 213 2.0 5.0 0.21 0.48 0.48 94 1007.9
20260505083036 54 252 3.0 7.0 0.23 0.47 0.47 94 1008.1
20260505081534 54 259 3.0 8.0 0.25 0.43 0.43 94 1008.0
20260505080039 54 258 0.0 3.0 0.21 0.33 0.33 93 1007.4
20260505074532 54 259 1.0 4.0 0.20 0.27 0.27 93 1007.5
20260505073030 55 260 0.0 3.0 0.23 0.24 0.24 92 1006.9
20260505071533 55 295 4.0 10.0 0.17 0.18 0.18 91 1007.5
20260505070027 56 297 6.0 10.0 0.11 0.11 0.11 90 1007.8
20260505064523 57 300 9.0 15.0 0.07 0.07 0.07 88 1007.9
20260505063019 58 306 10.0 26.0 0.01 0.01 0.01 83 1008.0
20260505061517 63 298 20.0 34.0 0.01 0.01 0.01 71 1007.5
20260505060032 65 234 8.0 18.0 0.00 0.00 0.00 64 1006.2
20260505054511 65 207 9.0 20.0 0.00 0.00 0.00 62 1005.5
20260505053005 65 214 11.0 18.0 0.00 0.00 0.00 63 1004.8
20260505051510 65 200 10.0 21.0 0.00 0.00 0.00 63 1004.8
20260505041559 65 190 11.0 18.0 0.00 0.00 0.00 65 1004.6
20260505040050 65 217 10.0 22.0 0.00 0.00 0.00 66 1004.7
20260505034553 65 195 12.0 20.0 0.00 0.00 0.00 65 1004.8
20260505033050 65 187 9.0 15.0 0.00 0.00 0.00 65 1005.0
20260505031554 65 197 8.0 13.0 0.00 0.00 0.00 65 1005.2
20260505030049 65 216 9.0 17.0 0.00 0.00 0.00 65 1005.1
20260505024554 66 193 8.0 15.0 0.00 0.00 0.00 64 1005.2
20260505023052 66 185 7.0 16.0 0.00 0.00 0.00 63 1005.2
20260505021547 66 221 8.0 16.0 0.00 0.00 0.00 63 1005.1
20260505020046 66 201 8.0 12.0 0.00 0.00 0.00 62 1004.8
20260505014547 66 201 6.0 14.0 0.00 0.00 0.00 62 1004.7
20260505013100 67 203 9.0 19.0 0.00 0.00 0.00 61 1004.4
20260505011547 67 191 8.0 15.0 0.00 0.00 0.00 60 1004.4
20260505010053 68 187 10.0 17.0 0.00 0.00 0.00 58 1004.2
20260505004548 69 181 8.0 17.0 0.00 0.00 0.00 56 1004.1
20260505003044 69 207 10.0 20.0 0.00 0.00 0.00 54 1004.0
20260505001543 70 215 10.0 21.0 0.00 0.00 0.00 54 1004.0
20260505000053 70 206 10.0 16.0 0.00 0.00 0.00 54 1004.1
20260504234539 71 210 11.0 17.0 0.00 0.00 0.00 55 1004.2
20260504233043 70 197 9.0 15.0 0.00 0.00 0.00 58 1004.4
20260504231535 70 200 11.0 18.0 0.00 0.00 0.00 59 1004.6
20260504230034 69 187 11.0 18.0 0.00 0.00 0.00 59 1004.9
20260504224533 69 199 12.0 21.0 0.00 0.00 0.00 59 1005.1
20260504223038 70 208 11.0 20.0 0.00 0.00 0.00 59 1005.0
20260504221531 69 188 10.0 16.0 0.00 0.00 0.00 61 1005.3
20260504220040 68 189 12.0 22.0 0.00 0.00 0.00 61 1005.4
20260504214535 68 170 10.0 17.0 0.00 0.00 0.00 64 1005.5
20260504213028 66 200 9.0 19.0 0.00 0.00 0.00 69 1005.4
20260504211534 67 201 12.0 18.0 0.00 0.00 0.00 66 1005.7
20260504210026 68 215 12.0 23.0 0.00 0.00 0.00 63 1005.8
20260504204527 71 232 13.0 28.0 0.00 0.01 0.00 54 1005.8
20260504203028 71 197 6.0 14.0 0.00 0.01 0.00 54 1005.5
20260504201521 70 238 9.0 22.0 0.00 0.01 0.00 54 1005.7
20260504200018 69 234 9.0 21.0 0.00 0.01 0.00 58 1006.1
20260504194517 68 215 10.0 25.0 0.00 0.03 0.00 62 1006.6
20260504193021 68 257 14.0 26.0 0.00 0.03 0.00 60 1007.1
20260504191518 69 230 16.0 26.0 0.00 0.03 0.00 62 1007.1
20260504190013 68 227 11.0 25.0 0.00 0.03 0.00 63 1007.2
20260504184516 69 210 12.0 26.0 0.00 0.03 0.00 62 1006.9
20260504183012 70 225 17.0 26.0 0.00 0.03 0.00 60 1006.6
20260504181512 69 225 11.0 23.0 0.00 0.03 0.00 62 1006.7
20260504180006 68 259 11.0 29.0 0.00 0.03 0.00 66 1007.0
20260504174505 68 208 18.0 30.0 0.00 0.03 0.00 64 1007.0
20260504173004 68 195 13.0 23.0 0.00 0.03 0.00 62 1006.9
20260504171507 68 211 12.0 23.0 0.00 0.03 0.00 64 1007.0